Regional Weather Roundup
Issued by NWS

Home | Current Version | Previous Version | Text Only | Print | Product List | Glossary On
Versions: 1 2 3 4 5 6 7 8 9 10 11 12 13 14 15 16 17 18 19 20 21 22 23 24 25 26 27 28 29 30 31 32 33 34 35 36 37 38 39 40 41 42 43 44 45 46 47 48 49 50
000
ASUS44 KJAN 271203
RWRMS

MISSISSIPPI HOURLY WEATHER ROUNDUP
NATIONAL WEATHER SERVICE JACKSON MS
700 AM CDT MON APR 27 2015

NOTE: "FAIR: INDICATES FEW OR NO CLOUDS BELOW 12,000 FEET WITH NO
SIGNIFICANT WEATHER AND/OR OBSTRUCTIONS TO VISIBILITY.

MSZ001>002-007>008-010>013-018>021-025>028-034>036-271300-
NORTHWEST MISSISSIPPI

CITY           SKY/WX    TMP DP  RH WIND       PRES   REMARKS
CLARKSDALE     FAIR      55  48  76 N7        29.95S
CLEVELAND      FAIR      56  51  84 NE10      29.92R
GREENWOOD      MOCLDY    56  47  71 NE9       29.92R
6HR MIN TEMP:  55; 6HR MAX TEMP:  58;

GREENVILLE     CLOUDY    57  48  72 NE14      29.90R
6HR MIN TEMP:  56; 6HR MAX TEMP:  59;

OLIVE BRANCH   CLOUDY    48  46  93 N8        29.99R
OXFORD         FAIR      50  45  81 N6        29.96R
TUNICA         CLOUDY    54  45  71 N14       29.97S
$$

MSZ003>006-009-014>017-022>024-029>033-037>039-271300-
NORTHEAST MISSISSIPPI

CITY           SKY/WX    TMP DP  RH WIND       PRES   REMARKS
COLUMBUS AFB   CLOUDY    52  49  87 N6        29.92R
6HR MIN TEMP:  52; 6HR MAX TEMP:  56;

CORINTH        FAIR      48  43  81 N6        29.98R
GOLDN TRIANGLE CLEAR     54  48  82 N5        29.91R
STARKVILLE     FAIR      54  50  87 N5        29.93R
TUPELO         CLOUDY    52  45  77 NE13      29.93R
6HR MIN TEMP:  50; 6HR MAX TEMP:  53;

$$

MSZ040-058-271300-
CENTRAL MISSISSIPPI

CITY           SKY/WX    TMP DP  RH WIND       PRES   REMARKS
JACKSON INTL   CLOUDY    58  52  80 NE13G18   29.85R
6HR MIN TEMP:  58; 6HR MAX TEMP:  69;

JACKSON HAWKNS CLOUDY    59  52  77 MISG      29.85R
6HR MIN TEMP:  58; 6HR MAX TEMP:  68;

MERIDIAN KEY   CLOUDY    56  50  80 NE14      29.87R
6HR MIN TEMP:  56; 6HR MAX TEMP:  66;

MERIDIAN NAS   MOCLDY    56  50  80 NE7       29.89R
6HR MIN TEMP:  55; 6HR MAX TEMP:  64;

RAYMOND        FAIR      59  54  82 VRB6G14   29.83R
VICKSBURG      CLOUDY    60  53  77 N13       29.84R
6HR MIN TEMP:  60; 6HR MAX TEMP:  65;

$$

MSZ059>079-271300-
SOUTH MISSISSIPPI

CITY           SKY/WX    TMP DP  RH WIND       PRES   REMARKS
BROOKHAVEN       N/A    N/A N/A N/A NE8       29.80S
HATTIESBURG    MOCLDY    64  59  83 NE6       29.82R
6HR MIN TEMP:  64; 6HR MAX TEMP:  70;

MCCOMB         CLOUDY    64  61  90 NE9G16    29.76S
6HR MIN TEMP:  64; 6HR MAX TEMP:  69;

NATCHEZ        CLOUDY    64  61  88 NE12G20   29.77R
6HR MIN TEMP:  64; 6HR MAX TEMP:  70;

PINE BELT      MOCLDY    61  55  82 NE7       29.83R
6HR MIN TEMP:  61; 6HR MAX TEMP:  68;

$$

MSZ080>082-271300-
COASTAL MISSISSIPPI

CITY           SKY/WX    TMP DP  RH WIND       PRES   REMARKS
BAY ST LOUIS   CLEAR     66  61  82 MISG      29.74
BILOXI         CLOUDY    67  66  96 NE9       29.75R
6HR MIN TEMP:  67; 6HR MAX TEMP:  75;

PASCAGOULA     CLOUDY    67  63  87 NE8       29.76S
6HR MIN TEMP:  67; 6HR MAX TEMP:  71;

GULFPORT       CLOUDY    69  62  78 NE10      29.74R
6HR MIN TEMP:  68; 6HR MAX TEMP:  73;

$$



USA.gov is the U.S. government's official web portal to all federal, state and local government web resources and services.